User: anonymous   Login
Location: Unspecified
(0.0000°N, 0.0000°E)
Time: 18:00:55
(UTC+00:00)
Language:

ONEWEB-0557 - Orbit

View from above orbital plane
View from above orbital plane
View from above satellite
View from above satellite

Ground track
Ground track

The orbit is defined by the following mean orbital elements,

1 56058U          26145.49841147 +.00000000 +00000-0 +74365-4 0 00002
2 56058  87.9105 233.2858 0003299  95.6204 264.5303 13.16595995    02
Epoch (UTC): 25 May 2026 11:57:42
Eccentricity: 0.0003299
inclination: 87.9105°
perigee height: 1195 km
apogee height: 1200 km
right ascension of ascending node: 233.2858°
argument of perigee: 95.6204°
revolutions per day: 13.16595995
mean anomaly at epoch: 264.5303°

The dashed part of the orbit path shows where the satellite is in the earth's shadow,  

DLR